Home   Weather   Nadiad   Past weeks

Flag for India Past Weather in Nadiad, Gujarat, India — Yesterday and Last 2 Weeks

Now
88 °F

Clear.


Feels Like: 96 °F
Forecast: 79 / 95 °F
Wind: No wind

Location: Ahmadabad Airport

Current Time: Sep 26, 2016 at 9:21:38 PM

Latest Report: Sep 26, 2016 at 8:00 PM


Visibility: 2 mi

Pressure: 29.74 "Hg

Humidity: 62%

Dew Point: 73 °F

Location of NadiadLocation

Past Weather in Nadiad — Graph

°F

Nadiad Temperature Yesterday

Maximum temperature yesterday: 93 °F (at 4:00 PM)
Minimum temperature yesterday: 81 °F (at 3:30 AM)
Average temperature yesterday: 86 °F

High & Low Weather Summary for the Past Weeks

 TemperatureHumidityPressure
High99 °F (Sep 15, 3:00 PM)94% (Sep 18, 8:30 PM)29.83 "Hg (Sep 18, 8:30 PM)
Low75 °F (Sep 18, 10:00 PM)46% (Sep 12, 2:00 PM)29.56 "Hg (Sep 17, 4:00 PM)
Average86 °F71%29.71 "Hg
* Reported Sep 11 7:30 PM — Sep 26 8:00 PM, Nadiad, Weather by CustomWeather, © 2016

Note: Actual official high and low records may vary slightly from our data, if they occured in-between our weather recording intervals... More about our weather records

Advertising

Nadiad Weather History for the Previous 24 Hours

Scroll right to see more
 ConditionsComfort  
Time TempWeatherWind HumidityBarometerVisibility
8:00 PM
Mon, Sep 26
88 °FClear.No wind62%29.74 "Hg2 mi
7:30 PM88 °FClear.No wind62%29.71 "Hg2 mi
7:00 PM88 °FPassing clouds.No wind62%29.71 "Hg2 mi
6:30 PM91 °FPassing clouds.3 mph56%29.71 "Hg2 mi
6:00 PM93 °FClear.3 mph53%29.68 "Hg4 mi
5:30 PM93 °FClear.6 mph53%29.68 "Hg4 mi
5:00 PM93 °FClear.5 mph53%29.68 "Hg4 mi
4:30 PM93 °FClear.6 mph53%29.68 "Hg4 mi
4:00 PM93 °FClear.5 mph53%29.68 "Hg4 mi
3:30 PM93 °FClear.7 mph56%29.71 "Hg4 mi
3:00 PM91 °FClear.5 mph59%29.71 "Hg4 mi
2:30 PM91 °FClear.7 mph59%29.71 "Hg4 mi
2:00 PM90 °FHaze.2 mph63%29.74 "Hg3 mi
1:30 PM90 °FHaze.7 mph63%29.74 "Hg3 mi
1:00 PM90 °FScattered clouds.7 mph67%29.77 "Hg3 mi
12:30 PM88 °FScattered clouds.8 mph66%29.80 "Hg3 mi
12:00 PM88 °FPartly sunny.8 mph70%29.80 "Hg3 mi
11:30 AM86 °FPartly sunny.8 mph70%29.80 "Hg3 mi
11:00 AM86 °FPartly sunny.9 mph70%29.83 "Hg3 mi
10:30 AM84 °FPartly sunny.7 mph79%29.83 "Hg4 mi
10:00 AM84 °FScattered clouds.7 mph74%29.83 "Hg4 mi
9:30 AM84 °FPassing clouds.7 mph74%29.83 "Hg4 mi
9:00 AM82 °FPassing clouds.9 mph74%29.80 "Hg4 mi
8:30 AM81 °FHaze.8 mph79%29.80 "Hg3 mi
8:00 AM81 °FHaze.9 mph79%29.80 "Hg2 mi
7:30 AM79 °FHaze.6 mph84%29.77 "Hg2 mi
7:00 AM79 °FHaze.7 mph84%29.74 "Hg2 mi
6:30 AM79 °FHaze.5 mph84%29.74 "Hg2 mi
6:00 AM81 °FHaze.6 mph79%29.74 "Hg2 mi
5:30 AM81 °FHaze.7 mph79%29.71 "Hg2 mi
5:00 AM81 °FHaze.8 mph79%29.71 "Hg2 mi
4:30 AM81 °FHaze.6 mph79%29.71 "Hg2 mi
4:00 AM81 °FHaze.7 mph79%29.68 "Hg2 mi
3:30 AM81 °FHaze.6 mph84%29.68 "Hg2 mi
3:00 AM81 °FHaze.6 mph79%29.68 "Hg2 mi
2:30 AM82 °FHaze.6 mph74%29.68 "Hg2 mi
2:00 AM82 °FHaze.7 mph74%29.68 "Hg2 mi
1:30 AM82 °FHaze.9 mph74%29.71 "Hg2 mi
1:00 AM84 °FHaze.7 mph70%29.71 "Hg2 mi
12:30 AM84 °FHaze.7 mph70%29.71 "Hg2 mi
12:00 AM84 °FHaze.6 mph70%29.71 "Hg2 mi
11:30 PM
Sun, Sep 25
86 °FHaze.8 mph66%29.71 "Hg2 mi
11:00 PM86 °FHaze.9 mph66%29.71 "Hg2 mi
10:30 PM88 °FHaze.6 mph62%29.74 "Hg2 mi
10:00 PM88 °FHaze.5 mph62%29.74 "Hg2 mi
9:30 PM88 °FClear.7 mph62%29.71 "Hg2 mi
9:00 PM90 °FClear.6 mph59%29.71 "Hg2 mi
Weather by CustomWeather, © 2016

See weather overviewHow to use our weather pages